Regional Weather Roundup
Issued by NWS

Home | Current Version | Previous Version | Text Only | Print | Product List | Glossary On
Versions: 1 2 3 4 5 6 7 8 9 10 11 12 13 14 15 16 17 18 19 20 21 22 23 24 25 26 27 28 29 30 31 32 33 34 35 36 37 38 39 40 41 42 43 44 45 46 47 48 49 50
688
ASUS43 KDTX 101610
RWRMI
MICHIGAN HOURLY REGIONAL WEATHER ROUNDUP
NATIONAL WEATHER SERVICE DETROIT/PONTIAC MI
1100 AM EST WED FEB 10 2016

NOTE: "FAIR" INDICATES FEW OR NO CLOUDS BELOW 12,000 FEET WITH NO
SIGNIFICANT WEATHER AND/OR OBSTRUCTION TO VISIBILITY.

MIZ047>049-052>055-059>063-066>070-074>076-081>083-101700-
SOUTHEAST LOWER MICHIGAN

CITY           SKY/WX    TMP DP  RH WIND       PRES   REMARKS
ADRIAN         CLOUDY    20  12  71 NW8       29.86R WCI  10
ALMA           LGT SNOW  19  11  73 NW10      29.85S WCI   7
ANN ARBOR      CLOUDY    20   6  55 NW16      29.83R WCI   6
BAD AXE        LGT SNOW  13   7  77 NW15G26   29.80R WCI  -3
CARO           CLOUDY    14   9  79 NW12G21   29.82R WCI   0
DETROIT CITY   LGT SNOW  19  12  74 NW9       29.83R WCI   8
DETROIT        PTSUNNY   21  10  62 W17       29.84R WCI   7
FLINT          CLOUDY    19   8  62 NW16      29.83S WCI   4
GROSSE ILE     CLOUDY    21  12  68 NW14G23   29.82R WCI   8
HILLSDALE      LGT SNOW  19  12  74 NW12G23   29.84R WCI   7
HOWELL         CLOUDY    19   8  64 NW10G17   29.83R WCI   7

CITY           SKY/WX    TMP DP  RH WIND       PRES   REMARKS
JACKSON        LGT SNOW  18  12  77 NW12      29.85R VSB 1   WCI   5
LAMBERTVILLE   LGT SNOW  21  17  83 W12G17    29.86R WCI   9
LANSING        CLOUDY    18   8  65 NW9       29.86R WCI   7
LAPEER         CLOUDY    15   8  73 NW15G22   29.81R WCI  -1
MASON          CLOUDY    18   8  65 NW10      29.85R WCI   6
MONROE         CLOUDY    22   9  56 NW17G25   29.84R WCI   8
MT. CLEMENS    CLOUDY    19   9  65 NW21G26   29.80R WCI   3
PONTIAC        FLURRIES  17  10  74 NW16      29.79R WCI   2
PORT HOPE        N/A     14   9  80 NW20G26   29.77R WCI  -3
PORT HURON     CLOUDY    16   7  67 NW16G24   29.80R WCI   0
TRI CITIES     CLOUDY    17   7  64 NW14      29.85R HAZE    WCI   3
MIDLAND        CLOUDY    16   6  64 NW8       29.84S WCI   5
TROY           LGT SNOW  20  13  75 NW12      29.83R WCI   8
SAGINAW HB     CLOUDY    18  12  79 NW8       29.84S WCI   7
$$
MIZ043>046-050>051-056>058-064>065-071>073-077>080-101700-
SOUTHWEST LOWER MICHIGAN

CITY           SKY/WX    TMP DP  RH WIND       PRES   REMARKS
BATTLE CREEK   CLOUDY    19   8  62 NW14      29.87R WCI   6
BENTON HARBOR  CLOUDY    20   8  60 NW15G24   29.95S WCI   6
BIG RAPIDS     LGT SNOW  17  10  73 NW14      29.84R WCI   3
COLDWATER      CLOUDY    20  13  74 NW10      29.88R WCI   8
FREMONT        CLOUDY    18   7  62 NW18      29.90R WCI   2
HOLLAND        LGT SNOW  19  12  74 NW10G20   29.93R WCI   7
GRAND RAPIDS   LGT SNOW  19  10  68 NW17      29.89R VSB 1   WCI   4
IONIA          LGT SNOW  18  10  71 NW12G22   29.86R WCI   6
KALAMAZOO      LGT SNOW  19  11  70 NW15      29.89R WCI   5
LUDINGTON      LGT SNOW  16   8  71 NW12G20   29.92S WCI   2
MARSHALL       CLOUDY    21   9  59 W13G21    29.86R WCI   9
MOUNT PLEASANT CLOUDY    19   7  58 NW9       29.83S WCI   9
MUSKEGON       LGT SNOW  18   9  68 NW15G22   29.93R WCI   4
SOUTH HAVEN    CLOUDY    20  11  69 NW14G23   29.94R HAZE    WCI   7
$$
MIZ016>042-101700-
NORTHERN LOWER MICHIGAN

CITY           SKY/WX    TMP DP  RH WIND       PRES   REMARKS
ALPENA         SNOW      10   4  76 NW10G18   29.81R VSB 1/2 WCI  -4
BEAVER ISLAND  CLOUDY    11   1  63 NW12G21   29.89R HAZE    WCI  -3
BELLAIRE       CLOUDY    15   2  56 N6G17     29.87R WCI   6
CADILLAC       LGT SNOW  14   7  71 NW14      29.79R WCI   0
CHARLEVOIX     LGT SNOW  13   4  65 N15G21    29.89R WCI  -3
FRANKFORT      LGT SNOW  15  10  79 NW14G23   29.90R VSB 3/4 WCI   0
GAYLORD        MOSUNNY   10  -1  61 NW8       29.78R WCI  -2
GRAYLING       CLOUDY    12   3  68 NW14      29.80R HAZE    WCI  -4
HARBOR SPRINGS CLOUDY    10   0  62 NW15G21   29.85S WCI  -6
HOUGHTON LAKE  CLOUDY    12   3  67 N9        29.79S WCI   0
MANISTEE       CLOUDY    16   5  62 N9G22     29.91R WCI   4
OSCODA         CLOUDY    10   3  72 MISG      29.81R HAZE
PELLSTON       CLOUDY     9   0  67 N18       29.86R WCI -10
ROGERS CITY    LGT SNOW   8   3  78 W15       29.83R VSB 3/4 WCI  -9
TRAVERSE CITY  LGT SNOW  16   8  71 N12       29.87R WCI   3
$$
MIZ007>008-015-101700-
EASTERN UPPER MICHIGAN

CITY           SKY/WX    TMP DP  RH WIND       PRES   REMARKS
KINROSS        SUNNY      7  -2  66 N15       29.83S WCI -11
MACKINAC ISLAN CLOUDY     8   1  72 N9        29.84S WCI  -5
NEWBERRY       LGT SNOW   8   3  82 N14       29.86S WCI  -9
S. S. MARIE    SUNNY      4 -10  52 NW9       29.85R WCI -10
MUNISING         N/A     11   5  77 N23       29.93R WCI  -9
$$
MIZ004>006-011>014-085-101700-
CENTRAL UPPER MICHIGAN

CITY           SKY/WX    TMP DP  RH WIND       PRES   REMARKS
MANISTIQUE     LGT SNOW  11   4  71 N14G22    29.90R WCI  -4
ESCANABA       CLOUDY    12   0  57 NW16G24   29.95S WCI  -4
MENOMINEE      SUNNY      9  -6  52 NW18G25   29.99S WCI -10
SAWYER-GWINN   SNOW       5   1  85 NW17      29.90R VSB 1/2 WCI -14
$$
MIZ001>003-009>011-084-101700-
WESTERN UPPER MICHIGAN

CITY           SKY/WX    TMP DP  RH WIND       PRES   REMARKS
IRON MOUNTAIN  SUNNY      6  -7  54 NW20G31   29.96S WCI -14
HOUGHTON       LGT SNOW   4  -3  73 N14       30.00R VSB 1   WCI -14
COPPER HARBOR    N/A     10   5  80 NE16G25   30.02R WCI  -7
IRONWOOD       CLOUDY     7   1  78 N8        30.01R WCI  -6
$$

ABBREVIATIONS USED IN REMARKS
   TC - TEMPERATURE IN CELSIUS
  WCI - WIND CHILL INDEX
   HX - HEAT INDEX
  VSB - VISIBILITY





USA.gov is the U.S. government's official web portal to all federal, state and local government web resources and services.